LU9DDB Weather Reports


Display with metric or nautical units.
time (UTC)temp
F
wind
direction
speed
MPH
gust
MPH
rain 1hr
in
rain 24hr
in
rain mn
in
humidity
%
barometer
mb
20260505181532 73 360 0.0 6.0 0.00 0.00 0.00 76 1008.6
20260505180043 73 323 1.0 2.0 0.00 0.00 0.00 76 1008.8
20260505174537 73 323 0.0 2.0 0.00 0.00 0.00 76 1008.9
20260505173028 73 286 0.0 4.0 0.00 0.00 0.00 75 1009.1
20260505171532 74 300 0.0 2.0 0.00 0.00 0.00 75 1008.9
20260505170028 73 295 1.0 5.0 0.00 0.00 0.00 77 1009.0
20260505164523 72 344 1.0 5.0 0.00 0.00 0.00 78 1009.2
20260505163022 72 338 1.0 7.0 0.00 0.00 0.00 80 1009.4
20260505161521 71 300 2.0 9.0 0.00 0.00 0.00 80 1009.6
20260505153023 72 334 5.0 11.0 0.00 0.00 0.00 76 1009.8
20260505151516 72 328 4.0 8.0 0.00 0.00 0.00 76 1010.0
20260505124546 61 14 0.0 3.0 0.00 0.00 0.00 85 1010.2
20260505123102 61 5 0.0 5.0 0.00 0.00 0.00 85 1010.0
20260505121542 60 40 0.0 4.0 0.00 0.00 0.00 85 1009.9
20260505120040 60 40 0.0 6.0 0.00 0.00 0.00 85 1009.9
20260505114548 59 360 0.0 9.0 0.00 0.00 0.00 85 1009.8
20260505113037 59 5 0.0 0.0 0.00 0.00 0.00 85 1009.4
20260505111549 58 5 0.0 2.0 0.00 0.00 0.00 85 1009.2
20260505101526 57 5 0.0 0.0 0.00 0.00 0.00 86 1008.8
20260505100018 57 5 0.0 1.0 0.00 0.00 0.00 86 1008.5
20260505094517 57 5 0.0 1.0 0.00 0.00 0.00 86 1008.4
20260505093016 57 5 0.0 0.0 0.00 0.00 0.00 85 1008.4
20260505091515 56 5 0.0 0.0 0.00 0.00 0.00 85 1008.4
20260505090013 56 5 0.0 0.0 0.00 0.00 0.00 86 1008.3
20260505084517 55 5 0.0 0.0 0.00 0.00 0.00 86 1008.4
20260505083014 55 5 0.0 0.0 0.00 0.00 0.00 87 1008.3
20260505081508 54 5 0.0 0.0 0.00 0.00 0.00 88 1008.2
20260505080018 54 5 0.0 0.0 0.00 0.00 0.00 88 1008.2
20260505074506 53 5 0.0 0.0 0.00 0.00 0.00 88 1008.2
20260505073005 53 5 0.0 0.0 0.00 0.00 0.00 88 1007.8
20260505071504 53 5 0.0 0.0 0.00 0.00 0.00 88 1007.8
20260505070002 53 5 0.0 0.0 0.00 0.00 0.00 87 1007.7
20260505064605 53 5 0.0 0.0 0.00 0.00 0.00 86 1007.8
20260505063059 54 5 0.0 1.0 0.00 0.00 0.00 86 1007.9
20260505061558 54 5 0.0 0.0 0.00 0.00 0.00 86 1008.0
20260505054604 54 5 0.0 0.0 0.00 0.00 0.00 85 1008.1
20260505053111 55 5 0.0 2.0 0.00 0.00 0.00 84 1008.3
20260505051556 54 5 0.0 2.0 0.00 0.00 0.00 85 1008.3
20260505041611 53 5 0.0 0.0 0.00 0.00 0.00 87 1008.2
20260505040050 54 5 0.0 0.0 0.00 0.00 0.00 86 1008.2
20260505034548 54 5 0.0 2.0 0.00 0.00 0.00 86 1008.1
20260505033047 54 5 0.0 1.0 0.00 0.00 0.00 86 1008.2
20260505031549 54 5 0.0 0.0 0.00 0.00 0.00 85 1008.0
20260505030042 54 5 0.0 1.0 0.00 0.00 0.00 86 1008.0
20260505024546 54 5 0.0 0.0 0.00 0.00 0.00 85 1008.2
20260505023046 54 5 0.0 1.0 0.00 0.00 0.00 85 1008.1
20260505021545 54 5 0.0 0.0 0.00 0.00 0.00 85 1008.2
20260505020031 55 5 0.0 0.0 0.00 0.00 0.00 84 1008.2
20260505014536 55 5 0.0 1.0 0.00 0.00 0.00 84 1008.1
20260505013031 55 5 0.0 0.0 0.00 0.00 0.00 84 1007.9
20260505011530 55 5 0.0 0.0 0.00 0.00 0.00 83 1007.7
20260505010028 56 5 0.0 0.0 0.00 0.00 0.00 82 1007.5
20260505004527 56 5 0.0 0.0 0.00 0.00 0.00 81 1007.5
20260505003026 56 5 0.0 1.0 0.00 0.00 0.00 80 1007.1
20260505001534 56 5 0.0 1.0 0.00 0.00 0.00 80 1007.2
20260504233043 57 5 0.0 0.0 0.00 0.00 0.00 77 1007.1
20260504231556 58 5 0.0 0.0 0.00 0.00 0.00 76 1007.1
20260504230041 58 5 0.0 0.0 0.00 0.00 0.00 74 1007.0
20260504224541 59 5 0.0 0.0 0.00 0.00 0.00 71 1006.7
20260504223040 60 5 0.0 1.0 0.00 0.00 0.00 70 1006.4
20260504221546 60 5 0.0 1.0 0.00 0.00 0.00 68 1006.5
20260504220039 61 5 0.0 0.0 0.00 0.00 0.00 66 1006.4
20260504214539 63 5 0.0 0.0 0.00 0.00 0.00 62 1006.4
20260504213038 64 5 0.0 4.0 0.00 0.00 0.00 59 1006.2
20260504211547 65 5 0.0 4.0 0.00 0.00 0.00 57 1006.1
20260504210052 66 5 1.0 5.0 0.00 0.00 0.00 55 1006.2
20260504204543 67 339 1.0 7.0 0.00 0.00 0.00 54 1006.3
20260504203040 68 351 2.0 7.0 0.00 0.00 0.00 52 1006.2
20260504201535 68 344 4.0 9.0 0.00 0.00 0.00 50 1006.1
20260504200034 68 342 4.0 9.0 0.00 0.00 0.00 49 1006.0
20260504194555 69 345 4.0 11.0 0.00 0.00 0.00 50 1006.2
20260504193032 69 333 4.0 10.0 0.00 0.00 0.00 50 1006.3
20260504191540 70 355 3.0 10.0 0.00 0.00 0.00 50 1006.3
20260504190033 70 5 3.0 10.0 0.00 0.00 0.00 49 1006.1
20260504184536 70 327 4.0 10.0 0.00 0.00 0.00 48 1006.1
20260504183026 70 24 3.0 8.0 0.00 0.00 0.00 48 1006.0